GW5115 Weather Reports


time (UTC)temp
C
wind
direction
speed
KPH
gust
KPH
rain 1hr
cm
rain 24hr
cm
rain mn
cm
humidity
%
barometer
mb
20260505124920 19 190 3.2 9.7 0.00 0.00 0.00 61 1014.4
20260505124417 19 228 3.2 6.4 0.00 0.00 0.00 58 1014.2
20260505123913 19 201 6.4 14.5 0.00 0.00 0.00 59 1014.1
20260505123410 18 218 3.2 12.9 0.00 0.00 0.00 63 1014.2
20260505122906 18 186 1.6 4.8 0.00 0.00 0.00 60 1014.0
20260505122403 18 186 3.2 3.2 0.00 0.00 0.00 66 1014.2
20260505121900 16 195 3.2 9.7 0.00 0.00 0.00 70 1014.2
20260505121357 16 179 0.0 0.0 0.00 0.00 0.00 76 1014.1
20260505120853 15 202 1.6 4.8 0.00 0.00 0.00 79 1014.1
20260505120349 14 175 3.2 4.8 0.00 0.00 0.00 83 1014.3
20260505115848 13 163 3.2 4.8 0.00 0.00 0.00 85 1014.0
20260505115345 12 185 3.2 3.2 0.00 0.00 0.00 88 1014.0
20260505114843 12 194 3.2 6.4 0.00 0.00 0.00 88 1013.7
20260505114339 11 191 3.2 3.2 0.00 0.00 0.00 93 1013.6
20260505113836 11 198 3.2 4.8 0.00 0.00 0.00 93 1013.5
20260505113332 11 184 1.6 3.2 0.00 0.00 0.00 91 1013.4
20260505112828 11 185 1.6 3.2 0.00 0.00 0.00 92 1013.5
20260505112326 11 168 1.6 4.8 0.00 0.00 0.00 90 1013.4
20260505111821 11 137 0.0 3.2 0.00 0.00 0.00 93 1013.5
20260505111317 10 196 1.6 3.2 0.00 0.00 0.00 96 1013.3
20260505110813 10 167 3.2 3.2 0.00 0.00 0.00 97 1013.3
20260505110311 9 141 0.0 3.2 0.00 0.00 0.00 98 1013.4
20260505101745 8 234 0.0 0.0 0.00 0.00 0.00 99 1013.1
20260505101241 8 239 0.0 1.6 0.00 0.00 0.00 99 1012.9
20260505100737 8 156 0.0 1.6 0.00 0.00 0.00 99 1012.9
20260505100234 8 198 1.6 3.2 0.00 0.00 0.00 98 1012.7
20260505095729 8 163 1.6 3.2 0.00 0.00 0.00 98 1012.8
20260505095228 9 162 0.0 1.6 0.00 0.00 0.00 96 1012.7
20260505094723 9 163 1.6 3.2 0.00 0.00 0.00 96 1012.7
20260505094220 10 166 3.2 4.8 0.00 0.00 0.00 97 1012.4
20260505093716 9 209 0.0 3.2 0.00 0.00 0.00 96 1012.3
20260505093214 10 191 0.0 4.8 0.00 0.00 0.00 96 1012.1
20260505092710 9 197 3.2 3.2 0.00 0.00 0.00 96 1012.0
20260505092209 9 202 1.6 3.2 0.00 0.00 0.00 97 1012.2
20260505091705 10 179 3.2 4.8 0.00 0.00 0.00 95 1012.0
20260505091204 10 180 1.6 1.6 0.00 0.00 0.00 95 1012.2
20260505090701 9 239 1.6 4.8 0.00 0.00 0.00 96 1012.2
20260505090159 10 181 1.6 3.2 0.00 0.00 0.00 95 1012.0
20260505085656 9 286 0.0 4.8 0.00 0.00 0.00 93 1012.1
20260505085154 9 122 3.2 4.8 0.00 0.00 0.00 97 1012.1
20260505084651 9 147 0.0 3.2 0.00 0.00 0.00 97 1012.0
20260505084150 8 132 1.6 3.2 0.00 0.00 0.00 98 1012.1
20260505083647 9 165 1.6 3.2 0.00 0.00 0.00 98 1012.2
20260505083143 8 304 3.2 4.8 0.00 0.00 0.00 99 1012.0
20260505082639 8 107 1.6 3.2 0.00 0.00 0.00 99 1012.0
20260505082137 8 111 3.2 3.2 0.00 0.00 0.00 99 1012.0
20260505081632 8 244 1.6 3.2 0.00 0.00 0.00 99 1011.9
20260505081130 8 216 0.0 0.0 0.00 0.00 0.00 99 1012.1
20260505080627 8 284 0.0 6.4 0.00 0.00 0.00 99 1012.1
20260505080123 8 208 0.0 3.2 0.00 0.00 0.00 99 1012.1
20260505075619 7 314 0.0 1.6 0.00 0.00 0.00 99 1012.0
20260505075116 8 161 1.6 3.2 0.00 0.00 0.00 99 1012.0
20260505074613 7 277 0.0 0.0 0.00 0.00 0.00 99 1011.8
20260505074110 7 277 0.0 1.6 0.00 0.00 0.00 99 1011.9
20260505073608 8 139 0.0 0.0 0.00 0.00 0.00 99 1011.9
20260505073106 8 140 0.0 0.0 0.00 0.00 0.00 99 1011.8
20260505072601 7 141 0.0 0.0 0.00 0.00 0.00 99 1011.8
20260505072058 8 141 0.0 0.0 0.00 0.00 0.00 99 1011.8
20260505071553 8 141 0.0 0.0 0.00 0.00 0.00 99 1011.7
20260505071051 8 141 0.0 0.0 0.00 0.00 0.00 99 1011.7
20260505070548 8 141 0.0 0.0 0.00 0.00 0.00 99 1011.9
20260505070044 8 141 0.0 0.0 0.00 0.00 0.00 99 1011.8
20260505065540 8 141 0.0 0.0 0.00 0.00 0.00 99 1011.8
20260505065037 8 141 0.0 0.0 0.00 0.00 0.00 99 1011.8
20260505064534 8 141 0.0 0.0 0.00 0.00 0.00 99 1012.0
20260505064032 8 141 0.0 0.0 0.00 0.00 0.00 99 1011.9
20260505063529 8 141 0.0 0.0 0.00 0.00 0.00 99 1011.9
20260505063025 8 141 0.0 0.0 0.00 0.00 0.00 99 1011.8
20260505062522 8 141 0.0 0.0 0.00 0.00 0.00 99 1011.8
20260505062019 9 141 0.0 0.0 0.00 0.00 0.00 99 1012.0
20260505061517 8 141 0.0 0.0 0.00 0.00 0.00 99 1012.1
20260505061015 8 141 0.0 0.0 0.00 0.00 0.00 99 1012.1
20260505060512 9 141 0.0 0.0 0.00 0.00 0.00 99 1011.9
20260505060008 9 141 0.0 0.0 0.00 0.00 0.00 99 1011.9
20260505055504 9 141 0.0 0.0 0.00 0.00 0.00 99 1012.0
20260505055000 9 141 0.0 0.0 0.00 0.00 0.00 99 1011.9
20260505054458 9 141 0.0 0.0 0.00 0.00 0.00 99 1011.9
20260505053956 9 141 0.0 0.0 0.00 0.00 0.00 99 1011.9
20260505053453 9 141 0.0 0.0 0.00 0.00 0.00 99 1011.9
20260505052949 10 141 0.0 0.0 0.00 0.00 0.00 99 1012.0
20260505052447 9 141 0.0 0.0 0.00 0.00 0.00 99 1011.9
20260505051943 10 141 0.0 0.0 0.00 0.00 0.00 99 1012.0
20260505051440 10 140 0.0 0.0 0.00 0.00 0.00 99 1012.0
20260505050939 10 140 0.0 0.0 0.00 0.00 0.00 99 1011.9
20260505050437 10 140 0.0 0.0 0.00 0.00 0.00 99 1011.9
20260505041404 10 140 0.0 0.0 0.00 0.00 0.00 99 1011.4
20260505040901 10 140 0.0 0.0 0.00 0.00 0.00 99 1011.2
20260505040359 10 143 0.0 0.0 0.00 0.00 0.00 99 1011.0
20260505035855 10 144 0.0 0.0 0.00 0.00 0.00 99 1011.1
20260505035351 10 144 0.0 0.0 0.00 0.00 0.00 99 1011.1
20260505034849 10 144 0.0 0.0 0.00 0.00 0.00 99 1011.1
20260505034345 10 144 0.0 0.0 0.00 0.00 0.00 99 1011.1
20260505033842 10 144 0.0 0.0 0.00 0.00 0.00 99 1011.1
20260505033339 10 144 0.0 0.0 0.00 0.00 0.00 99 1011.1
20260505032837 10 144 0.0 0.0 0.00 0.00 0.00 99 1011.2
20260505032334 10 144 0.0 0.0 0.00 0.00 0.00 99 1011.2
20260505031831 10 144 0.0 0.0 0.00 0.00 0.00 99 1011.0
20260505031327 10 144 0.0 0.0 0.00 0.00 0.00 99 1011.1
20260505030825 10 144 0.0 0.0 0.00 0.00 0.00 99 1011.2
20260505030320 11 144 0.0 0.0 0.00 0.00 0.00 99 1011.1
20260505025816 11 144 0.0 0.0 0.00 0.00 0.00 99 1011.0
20260505025314 11 144 0.0 0.0 0.00 0.00 0.00 98 1011.2
20260505024812 11 144 0.0 0.0 0.00 0.00 0.00 98 1011.1
20260505024309 11 144 0.0 0.0 0.00 0.00 0.00 98 1011.0
20260505023807 11 144 0.0 0.0 0.00 0.00 0.00 98 1011.2
20260505023303 11 144 0.0 0.0 0.00 0.00 0.00 97 1011.1
20260505022801 11 144 0.0 0.0 0.00 0.00 0.00 97 1011.0
20260505022258 11 144 0.0 0.0 0.00 0.00 0.00 97 1011.0
20260505021754 11 144 0.0 0.0 0.00 0.00 0.00 96 1011.0
20260505021251 12 144 0.0 0.0 0.00 0.00 0.00 96 1010.8
20260505020747 12 144 0.0 0.0 0.00 0.00 0.00 95 1011.1
20260505020242 12 144 0.0 0.0 0.00 0.00 0.00 95 1011.0
20260505015740 12 144 0.0 0.0 0.00 0.00 0.00 95 1011.3
20260505015237 12 144 0.0 0.0 0.00 0.00 0.00 94 1010.9
20260505014734 13 144 0.0 0.0 0.00 0.00 0.00 94 1010.9
20260505014231 13 144 0.0 0.0 0.00 0.00 0.00 93 1010.8
20260505013727 13 144 0.0 0.0 0.00 0.00 0.00 93 1010.8
20260505013225 13 144 0.0 0.0 0.00 0.00 0.00 92 1010.7
20260505012723 13 144 0.0 0.0 0.00 0.00 0.00 92 1010.9
20260505012220 13 144 0.0 0.0 0.00 0.00 0.00 91 1010.8
20260505011715 13 144 0.0 0.0 0.00 0.00 0.00 90 1010.8
20260505011213 14 140 0.0 0.0 0.00 0.00 0.00 90 1010.9
20260505010708 14 140 0.0 0.0 0.00 0.00 0.00 88 1010.9
20260505010205 15 140 0.0 0.0 0.00 0.00 0.00 88 1010.9
20260505005701 15 140 0.0 0.0 0.00 0.00 0.00 88 1010.9
20260505005159 15 140 0.0 0.0 0.00 0.00 0.00 87 1010.8
20260505004655 15 155 0.0 0.0 0.00 0.00 0.00 88 1010.8
20260505004152 15 220 0.0 0.0 0.00 0.00 0.00 88 1010.6
20260505003649 15 220 0.0 0.0 0.00 0.00 0.00 86 1010.4
20260505003147 15 220 0.0 0.0 0.00 0.00 0.00 85 1010.6
20260505002643 16 220 0.0 0.0 0.00 0.00 0.00 85 1010.7
20260505002141 16 220 0.0 0.0 0.00 0.00 0.00 84 1010.8
20260505001638 17 220 0.0 0.0 0.00 0.00 0.00 79 1011.0
20260505001135 17 220 0.0 0.0 0.00 0.00 0.00 78 1011.0
20260505000632 18 220 0.0 0.0 0.00 0.00 0.00 76 1011.0
20260505000131 18 220 0.0 0.0 0.00 0.00 0.00 73 1011.0
20260504235626 19 220 0.0 0.0 0.00 0.00 0.00 71 1010.9
20260504235123 20 220 0.0 0.0 0.00 0.00 0.00 68 1010.8
20260504234620 20 221 1.6 3.2 0.00 0.00 0.00 63 1010.9
20260504234118 21 213 0.0 1.6 0.00 0.00 0.00 63 1010.7
20260504233613 21 214 1.6 3.2 0.00 0.00 0.00 61 1010.7
20260504233109 22 242 1.6 1.6 0.00 0.00 0.00 53 1011.0
20260504232607 23 247 0.0 1.6 0.00 0.00 0.00 55 1011.0
20260504232104 22 253 1.6 3.2 0.00 0.00 0.00 50 1011.0
20260504231600 23 234 1.6 3.2 0.00 0.00 0.00 51 1011.0
20260504231056 23 295 1.6 1.6 0.00 0.00 0.00 52 1011.0
20260504230553 22 296 0.0 1.6 0.00 0.00 0.00 51 1011.1
20260504230052 23 287 0.0 3.2 0.00 0.00 0.00 49 1011.3
20260504225549 23 241 0.0 1.6 0.00 0.00 0.00 50 1011.2
20260504225046 24 220 0.0 1.6 0.00 0.00 0.00 47 1011.4
20260504224542 23 228 1.6 3.2 0.00 0.00 0.00 47 1011.3
20260504224040 23 240 1.6 6.4 0.00 0.00 0.00 47 1011.4
20260504223537 24 286 3.2 4.8 0.00 0.00 0.00 47 1011.3
20260504223032 23 346 4.8 9.7 0.00 0.00 0.00 47 1011.3
20260504222529 23 305 1.6 6.4 0.00 0.00 0.00 48 1011.3
20260504222027 23 326 0.0 9.7 0.00 0.00 0.00 49 1011.4
20260504221524 23 198 6.4 9.7 0.00 0.00 0.00 49 1011.4
20260504221020 23 212 1.6 6.4 0.00 0.00 0.00 50 1011.4
20260504220517 22 205 9.7 20.9 0.00 0.00 0.00 49 1011.5
20260504220014 23 199 11.3 12.9 0.00 0.00 0.00 51 1011.5
20260504215510 22 175 0.0 11.3 0.00 0.00 0.00 51 1011.5
20260504215008 23 222 4.8 6.4 0.00 0.00 0.00 51 1011.7
20260504214504 22 146 4.8 12.9 0.00 0.00 0.00 51 1011.7
20260504214000 22 242 3.2 12.9 0.00 0.00 0.00 54 1011.6
20260504213456 21 234 8.0 14.5 0.00 0.00 0.00 51 1011.7
20260504212954 22 205 6.4 11.3 0.00 0.00 0.00 53 1011.7
20260504212449 22 59 0.0 12.9 0.00 0.00 0.00 51 1011.7
20260504211948 22 314 8.0 16.1 0.00 0.00 0.00 51 1011.7
20260504211443 22 205 14.5 24.1 0.00 0.00 0.00 51 1011.6
20260504210942 22 298 12.9 20.9 0.00 0.00 0.00 51 1011.6
20260504210438 22 280 6.4 14.5 0.00 0.00 0.00 51 1011.6
20260504205935 21 266 9.7 12.9 0.00 0.00 0.00 53 1011.4
20260504205432 22 200 8.0 17.7 0.00 0.00 0.00 54 1011.3
20260504204931 22 218 12.9 20.9 0.00 0.00 0.00 51 1011.3
20260504204429 22 206 4.8 11.3 0.00 0.00 0.00 53 1011.5
20260504203928 21 202 6.4 11.3 0.00 0.00 0.00 54 1011.5
20260504203425 20 320 9.7 16.1 0.00 0.00 0.00 54 1011.7
20260504202920 20 222 1.6 4.8 0.00 0.00 0.00 55 1011.7
20260504202417 20 221 4.8 16.1 0.00 0.00 0.00 55 1011.3
20260504201914 21 217 8.0 22.5 0.00 0.00 0.00 52 1011.5
20260504201412 21 215 4.8 14.5 0.00 0.00 0.00 52 1011.6
20260504200909 21 6 6.4 20.9 0.00 0.00 0.00 49 1011.9
20260504200405 22 229 3.2 22.5 0.00 0.00 0.00 49 1012.0
20260504195902 22 0 8.0 22.5 0.00 0.00 0.00 48 1012.2
20260504195358 22 310 14.5 16.1 0.00 0.00 0.00 48 1012.0
20260504194855 22 278 16.1 22.5 0.00 0.00 0.00 48 1011.9
20260504194350 23 339 16.1 24.1 0.00 0.00 0.00 46 1011.9
20260504193847 23 168 9.7 27.4 0.00 0.00 0.00 46 1011.6
20260504193344 22 219 8.0 16.1 0.00 0.00 0.00 48 1012.0
20260504192843 22 250 12.9 27.4 0.00 0.00 0.00 47 1011.9
20260504192340 23 308 9.7 20.9 0.00 0.00 0.00 45 1012.1
20260504191838 22 309 3.2 14.5 0.00 0.00 0.00 49 1012.0
20260504191336 22 17 4.8 12.9 0.00 0.00 0.00 50 1012.1
20260504190831 22 25 11.3 16.1 0.00 0.00 0.00 46 1012.6
20260504190327 22 238 9.7 17.7 0.00 0.00 0.00 47 1012.4
20260504185824 22 277 3.2 11.3 0.00 0.00 0.00 48 1012.3
20260504185321 22 306 8.0 11.3 0.00 0.00 0.00 50 1012.6
20260504184817 22 212 6.4 12.9 0.00 0.00 0.00 51 1012.3
20260504184313 22 213 11.3 16.1 0.00 0.00 0.00 49 1012.6
20260504183809 22 308 4.8 22.5 0.00 0.00 0.00 50 1012.8
20260504183306 22 27 3.2 14.5 0.00 0.00 0.00 52 1013.0
20260504182804 21 311 9.7 17.7 0.00 0.00 0.00 54 1012.8
20260504182301 21 298 11.3 16.1 0.00 0.00 0.00 49 1012.4
20260504181759 21 258 4.8 9.7 0.00 0.00 0.00 53 1012.6
20260504181255 21 221 14.5 20.9 0.00 0.00 0.00 51 1012.6
20260504180755 20 244 3.2 22.5 0.00 0.00 0.00 54 1012.3
20260504180253 21 256 9.7 14.5 0.00 0.00 0.00 52 1012.3
20260504175750 21 237 4.8 11.3 0.00 0.00 0.00 51 1012.4
20260504175247 21 242 9.7 22.5 0.00 0.00 0.00 52 1012.7
20260504174745 20 204 3.2 4.8 0.00 0.00 0.00 55 1012.8
20260504174243 20 218 8.0 17.7 0.00 0.00 0.00 55 1013.1
20260504173739 20 285 17.7 22.5 0.00 0.00 0.00 53 1012.9
20260504173236 20 222 1.6 6.4 0.00 0.00 0.00 56 1013.1
20260504172733 20 254 9.7 20.9 0.00 0.00 0.00 59 1013.3
20260504172229 19 265 11.3 24.1 0.00 0.00 0.00 59 1013.3
20260504171725 19 241 17.7 22.5 0.00 0.00 0.00 59 1013.5
20260504171222 18 230 8.0 20.9 0.00 0.00 0.00 59 1013.5
20260504170719 18 255 17.7 25.7 0.00 0.00 0.00 60 1013.8
20260504170217 18 182 17.7 25.7 0.00 0.00 0.00 60 1013.7
20260504160135 16 253 14.5 16.1 0.00 0.00 0.00 63 1014.8
20260504151102 15 208 6.4 22.5 0.00 0.00 0.00 65 1015.3
20260504150600 15 306 3.2 16.1 0.00 0.00 0.00 62 1015.5
20260504141026 15 204 4.8 6.4 0.00 0.00 0.00 59 1015.5
20260504140522 15 173 3.2 4.8 0.00 0.00 0.00 61 1015.5